Regional Weather Roundup
Issued by NWS Kansas City/Pleasant Hill, MO

Home | Current Version | Previous Version | Text Only | Print | Product List | Glossary On
Versions: 1 2 3 4 5 6 7 8 9 10 11 12 13 14 15 16 17 18 19 20 21 22 23 24 25 26 27 28 29 30 31 32 33 34 35 36 37 38 39 40 41 42 43 44 45 46 47 48 49 50
000
ASUS43 KEAX 181204
RWREAX

WEATHER ROUNDUP FOR EASTERN KANSAS AND NORTHWEST MISSOURI
NATIONAL WEATHER SERVICE KANSAS CITY/PLEASANT HILL MO
600 AM CST THU DEC 18 2014

KSZ040-057-103>105-MOZ028-029-037-043-181300-
...KANSAS CITY METROPOLITAN AREA...

CITY           SKY/WX    TMP DP  RH WIND       PRES   REMARKS
K.C. INTL      LGT SNOW  28  26  92 E8        30.20F VSB 1   WCI  20
6HR MIN TEMP:  28; 6HR MAX TEMP:  30; 6HR PCP:  0.22;

K.C. DOWNTOWN  LGT SNOW  29  27  92 E8        30.21F FOG     WCI  21
6HR MIN TEMP:  29; 6HR MAX TEMP:  31; 6HR PCP:  0.15;

LEES SUMMIT    LGT SNOW  29  26  89 E9        30.20S VSB 1   WCI  20
6HR MIN TEMP:  28; 6HR MAX TEMP:  30; 6HR PCP:  0.06;

OLATHE - IXD   LGT SNOW  28  27  96 E7        30.19S FOG     WCI  21
6HR MIN TEMP:  28; 6HR MAX TEMP:  28; 6HR PCP:  0.12;

OLATHE - OJC   LGT SNOW  29  27  92 E6        30.18S FOG     WCI  23
6HR MIN TEMP:  28; 6HR MAX TEMP:  29; 6HR PCP:  0.11;

LAWRENCE       LGT SNOW  28  26  92 E7        30.20S FOG     WCI  21

$$

MOZ001>008-011>017-020>025-030>033-038>040-044>046-053-054-181300-
...NORTHERN AND CENTRAL MISSOURI...

CITY           SKY/WX    TMP DP  RH WIND       PRES   REMARKS
ST. JOSEPH     LGT SNOW  28  26  92 E5        30.23S FOG     WCI  23
6HR MIN TEMP:  28; 6HR MAX TEMP:  30; 6HR PCP:  0.08;

MOSBY          LGT SNOW  30  28  93 NE3       30.22F
WARRENSBURG    CLOUDY    30  28  93 NE7       30.21F FOG     WCI  23
WHITEMAN AFB   LGT SNOW  30  28  93 E5        30.21S FOG     WCI  25
6HR MIN TEMP:  29; 6HR MAX TEMP:  31; 6HR PCP:  0.04;

CLINTON        LGT SNOW  32  32 100 E6        30.21R WCI  26
SEDALIA        CLOUDY    31  29  92 E7        30.22S WCI  24
6HR MIN TEMP:  31; 6HR MAX TEMP:  33; 6HR PCP:  0.03;

WARSAW         NOT AVBL
MARSHALL       CLOUDY    32  30  93 E6        30.24  FOG     WCI  26
CHILLICOTHE      N/A     27  24  89 VRB3      30.26S
6HR MIN TEMP:  27; 6HR MAX TEMP:  31; 6HR PCP:  0.14;

KIRKSVILLE     LGT SNOW  25  24  96 E6        30.27R VSB 1   WCI  18
6HR MIN TEMP:  25; 6HR MAX TEMP:  27; 6HR PCP:  0.02;


$$

MOZ041-047>049-056>058-063>065-088>090-097-181300-
...EASTERN AND SOUTHERN MISSOURI...

CITY           SKY/WX    TMP DP  RH WIND       PRES   REMARKS
ST. LOUIS INTL FLURRIES  30  23  75 CALM      30.29R
6HR MIN TEMP:  30; 6HR MAX TEMP:  31; 6HR PCP: TRACE;

SPIRIT OF STL  LGT SNOW N/A N/A N/A NE7       30.27R
COLUMBIA       LGT SNOW  29  27  92 E7        30.24S FOG     WCI  22
JEFFERSON CITY LGT SNOW  30  27  88 E5        30.27R FOG     WCI  25
HANNIBAL       CLOUDY    28  19  69 CALM      30.28R
ROLLA          LGT SNOW  30  29  96 E5        30.21R FOG     WCI  25
LEBANON        MIX PCPN  32  32 100 E5        30.18F WCI  27
OSAGE BEACH    CLOUDY    30  28  93 E7        30.21F WCI  23
SPRINGFIELD    CLOUDY    33  32  96 SE6       30.16R FOG     WCI  28
NEVADA         LGT SNOW  30  30 100 E5        30.20R WCI  25
JOPLIN         CLOUDY    35  34  96 E5        30.17R FOG     WCI  31
WEST PLAINS    CLOUDY    32  31  96 E3        30.20R

$$

IAZ060-094-KSZ022-034>040-054-083-096-NEZ052-066-093-181300-
...KANSAS...SOUTHEAST NEBRASKA AND IOWA...

CITY           SKY/WX    TMP DP  RH WIND       PRES   REMARKS
TOPEKA         LGT SNOW  29  27  92 E6        30.21R FOG     WCI  23
6HR MIN TEMP:  29; 6HR MAX TEMP:  30; 6HR PCP:  0.10;

MANHATTAN      LGT SNOW  27  26  96 NE5       30.18S FOG     WCI  22
EMPORIA        LGT SNOW  27  27 100 E6        30.16R FOG     WCI  20
CHANUTE        LGT SNOW  31  30  96 E6        30.16S FOG     WCI  25
WICHITA        CLOUDY    32  30  92 E5        30.14R FOG     WCI  27
OMAHA          FLURRIES  27  20  75 SE6       30.24S WCI  20
LINCOLN        LGT SNOW  26  24  92 E3        30.22S FOG
FALLS CITY     LGT SNOW  27  25  92 E5        30.22R FOG     WCI  22
LAMONI         LGT SNOW  24  22  91 E3        30.24S FOG
DES MOINES     CLOUDY    23  16  74 E8        30.27S WCI  14

$$



USA.gov is the U.S. government's official web portal to all federal, state and local government web resources and services.